| time (UTC) | temp C | wind direction | speed KPH | gust KPH | rain 1hr cm | rain 24hr cm | rain mn cm | humidity % | barometer mb |
| 20260508050301 | 14 | 223 | 9.7 | 17.7 | 0.00 | 0.00 | 0.00 | 64 | 1017.0 |
| 20260508045800 | 14 | 225 | 8.0 | 16.1 | 0.00 | 0.00 | 0.00 | 65 | 1017.1 |
| 20260508045257 | 15 | 203 | 6.4 | 14.5 | 0.00 | 0.00 | 0.00 | 64 | 1016.9 |
| 20260508044758 | 15 | 239 | 6.4 | 14.5 | 0.00 | 0.00 | 0.00 | 65 | 1016.8 |
| 20260508044515 | 15 | 234 | 6.4 | 14.5 | 0.00 | 0.00 | 0.00 | 66 | 1016.8 |
| 20260508044022 | 15 | 225 | 4.8 | 12.9 | 0.00 | 0.00 | 0.00 | 68 | 1016.8 |
| 20260508043511 | 15 | 227 | 6.4 | 14.5 | 0.00 | 0.00 | 0.00 | 68 | 1016.8 |
| 20260508042752 | 15 | 227 | 9.7 | 14.5 | 0.00 | 0.00 | 0.00 | 68 | 1016.5 |
| 20260508042246 | 16 | 233 | 9.7 | 19.3 | 0.00 | 0.00 | 0.00 | 67 | 1016.4 |
| 20260508041745 | 16 | 233 | 9.7 | 19.3 | 0.00 | 0.00 | 0.00 | 67 | 1016.4 |
| 20260508041513 | 16 | 240 | 8.0 | 14.5 | 0.00 | 0.00 | 0.00 | 68 | 1016.3 |
| 20260508040737 | 16 | 226 | 8.0 | 14.5 | 0.00 | 0.00 | 0.00 | 68 | 1016.3 |
| 20260508040238 | 16 | 236 | 6.4 | 14.5 | 0.00 | 0.00 | 0.00 | 67 | 1016.3 |
| 20260508035737 | 16 | 246 | 6.4 | 14.5 | 0.00 | 0.00 | 0.00 | 66 | 1016.2 |
| 20260508035233 | 16 | 234 | 6.4 | 14.5 | 0.00 | 0.00 | 0.00 | 65 | 1016.0 |
| 20260508034733 | 16 | 251 | 6.4 | 12.9 | 0.00 | 0.00 | 0.00 | 66 | 1016.2 |
| 20260508034454 | 16 | 252 | 4.8 | 12.9 | 0.00 | 0.00 | 0.00 | 67 | 1016.1 |
| 20260508033725 | 17 | 258 | 4.8 | 9.7 | 0.00 | 0.00 | 0.00 | 68 | 1016.1 |
| 20260508033223 | 17 | 246 | 6.4 | 9.7 | 0.00 | 0.00 | 0.00 | 69 | 1015.9 |
| 20260508032723 | 17 | 237 | 4.8 | 8.0 | 0.00 | 0.00 | 0.00 | 69 | 1015.7 |
| 20260508032218 | 18 | 239 | 4.8 | 8.0 | 0.00 | 0.00 | 0.00 | 67 | 1015.6 |
| 20260508031719 | 18 | 299 | 4.8 | 8.0 | 0.00 | 0.00 | 0.00 | 66 | 1015.6 |
| 20260508031441 | 18 | 281 | 3.2 | 8.0 | 0.00 | 0.00 | 0.00 | 64 | 1015.5 |
| 20260508030718 | 19 | 308 | 4.8 | 8.0 | 0.00 | 0.00 | 0.00 | 62 | 1015.4 |
| 20260508030217 | 19 | 313 | 4.8 | 8.0 | 0.00 | 0.00 | 0.00 | 60 | 1015.3 |
| 20260508025715 | 20 | 292 | 4.8 | 8.0 | 0.00 | 0.00 | 0.00 | 59 | 1015.3 |
| 20260508025215 | 20 | 321 | 4.8 | 6.4 | 0.00 | 0.00 | 0.00 | 59 | 1015.2 |
| 20260508024717 | 20 | 317 | 4.8 | 8.0 | 0.00 | 0.00 | 0.00 | 57 | 1015.3 |
| 20260508024215 | 20 | 333 | 3.2 | 8.0 | 0.00 | 0.00 | 0.00 | 58 | 1015.2 |
| 20260508023714 | 20 | 348 | 3.2 | 6.4 | 0.00 | 0.00 | 0.00 | 58 | 1015.2 |
| 20260508023205 | 20 | 346 | 4.8 | 8.0 | 0.00 | 0.00 | 0.00 | 58 | 1015.2 |
| 20260508022705 | 21 | 344 | 4.8 | 8.0 | 0.00 | 0.00 | 0.00 | 57 | 1015.2 |
| 20260508022405 | 21 | 350 | 4.8 | 9.7 | 0.00 | 0.00 | 0.00 | 59 | 1015.2 |
| 20260508022249 | 21 | 333 | 3.2 | 6.4 | 0.00 | 0.00 | 0.00 | 57 | 1015.2 |
| 20260508021159 | 21 | 336 | 4.8 | 9.7 | 0.00 | 0.00 | 0.00 | 59 | 1015.2 |
| 20260508020659 | 21 | 358 | 4.8 | 9.7 | 0.00 | 0.00 | 0.00 | 58 | 1015.2 |
| 20260508020202 | 21 | 356 | 4.8 | 9.7 | 0.00 | 0.00 | 0.00 | 58 | 1015.3 |
| 20260508015700 | 22 | 3 | 4.8 | 9.7 | 0.00 | 0.00 | 0.00 | 54 | 1015.3 |
| 20260508015201 | 22 | 341 | 3.2 | 6.4 | 0.00 | 0.00 | 0.00 | 51 | 1015.3 |
| 20260508014652 | 22 | 9 | 3.2 | 6.4 | 0.00 | 0.00 | 0.00 | 52 | 1015.3 |
| 20260508014150 | 22 | 319 | 1.6 | 4.8 | 0.00 | 0.00 | 0.00 | 51 | 1015.5 |
| 20260508013647 | 22 | 249 | 0.0 | 3.2 | 0.00 | 0.00 | 0.00 | 51 | 1015.5 |
| 20260508013152 | 22 | 51 | 1.6 | 4.8 | 0.00 | 0.00 | 0.00 | 49 | 1015.6 |
| 20260508012635 | 22 | 51 | 1.6 | 4.8 | 0.00 | 0.00 | 0.00 | 51 | 1015.6 |
| 20260508012125 | 22 | 45 | 3.2 | 9.7 | 0.00 | 0.00 | 0.00 | 50 | 1015.7 |
| 20260508011609 | 22 | 45 | 3.2 | 9.7 | 0.00 | 0.00 | 0.00 | 49 | 1015.6 |
| 20260508011104 | 22 | 11 | 1.6 | 6.4 | 0.00 | 0.00 | 0.00 | 51 | 1015.7 |
| 20260508010602 | 22 | 25 | 1.6 | 6.4 | 0.00 | 0.00 | 0.00 | 49 | 1015.7 |
| 20260508010055 | 22 | 25 | 3.2 | 6.4 | 0.00 | 0.00 | 0.00 | 52 | 1015.7 |
| 20260508005817 | 23 | 6 | 3.2 | 6.4 | 0.00 | 0.00 | 0.00 | 50 | 1015.8 |
| 20260508005054 | 22 | 347 | 3.2 | 6.4 | 0.00 | 0.00 | 0.00 | 52 | 1015.8 |
| 20260508004553 | 22 | 18 | 3.2 | 6.4 | 0.00 | 0.00 | 0.00 | 51 | 1015.8 |
| 20260508004310 | 22 | 347 | 3.2 | 6.4 | 0.00 | 0.00 | 0.00 | 51 | 1015.9 |
| 20260508003544 | 22 | 21 | 1.6 | 6.4 | 0.00 | 0.00 | 0.00 | 51 | 1015.9 |
| 20260508003304 | 22 | 301 | 1.6 | 6.4 | 0.00 | 0.00 | 0.00 | 52 | 1015.8 |
| 20260508002544 | 22 | 346 | 1.6 | 6.4 | 0.00 | 0.00 | 0.00 | 56 | 1016.0 |
| 20260508002044 | 22 | 36 | 1.6 | 6.4 | 0.00 | 0.00 | 0.00 | 50 | 1016.0 |
| 20260508001538 | 22 | 322 | 1.6 | 6.4 | 0.00 | 0.00 | 0.00 | 54 | 1016.0 |
| 20260508001038 | 21 | 150 | 1.6 | 6.4 | 0.00 | 0.00 | 0.00 | 53 | 1016.0 |
| 20260508000540 | 22 | 123 | 3.2 | 6.4 | 0.00 | 0.00 | 0.00 | 56 | 1016.1 |
| 20260508000036 | 21 | 144 | 3.2 | 8.0 | 0.00 | 0.00 | 0.00 | 54 | 1016.1 |
| 20260507235533 | 22 | 17 | 3.2 | 8.0 | 0.00 | 0.00 | 0.00 | 54 | 1016.1 |
| 20260507235028 | 22 | 307 | 3.2 | 9.7 | 0.00 | 0.00 | 0.00 | 57 | 1016.2 |
| 20260507234529 | 22 | 21 | 3.2 | 9.7 | 0.00 | 0.00 | 0.00 | 54 | 1016.2 |
| 20260507234030 | 21 | 65 | 3.2 | 9.7 | 0.00 | 0.00 | 0.00 | 55 | 1016.3 |
| 20260507233522 | 22 | 6 | 3.2 | 9.7 | 0.00 | 0.00 | 0.00 | 57 | 1016.3 |
| 20260507233023 | 22 | 37 | 3.2 | 9.7 | 0.00 | 0.00 | 0.00 | 55 | 1016.3 |
| 20260507232518 | 22 | 329 | 3.2 | 11.3 | 0.00 | 0.00 | 0.00 | 56 | 1016.4 |
| 20260507232014 | 22 | 311 | 3.2 | 11.3 | 0.00 | 0.00 | 0.00 | 54 | 1016.7 |
| 20260507231512 | 21 | 353 | 3.2 | 9.7 | 0.00 | 0.00 | 0.00 | 58 | 1016.8 |
| 20260507231011 | 21 | 38 | 3.2 | 9.7 | 0.00 | 0.00 | 0.00 | 58 | 1016.8 |
| 20260507230504 | 21 | 6 | 3.2 | 9.7 | 0.00 | 0.00 | 0.00 | 59 | 1016.9 |
| 20260507230003 | 21 | 21 | 3.2 | 6.4 | 0.00 | 0.00 | 0.00 | 60 | 1016.8 |
| 20260507225503 | 21 | 275 | 3.2 | 8.0 | 0.00 | 0.00 | 0.00 | 60 | 1017.0 |
| 20260507224949 | 21 | 270 | 4.8 | 12.9 | 0.00 | 0.00 | 0.00 | 60 | 1017.1 |
| 20260507224449 | 21 | 285 | 3.2 | 12.9 | 0.00 | 0.00 | 0.00 | 59 | 1017.1 |
| 20260507224214 | 21 | 265 | 3.2 | 8.0 | 0.00 | 0.00 | 0.00 | 60 | 1017.0 |
| 20260507223449 | 21 | 252 | 4.8 | 9.7 | 0.00 | 0.00 | 0.00 | 61 | 1017.2 |
| 20260507222949 | 21 | 325 | 4.8 | 9.7 | 0.00 | 0.00 | 0.00 | 60 | 1017.2 |
| 20260507222448 | 20 | 275 | 3.2 | 14.5 | 0.00 | 0.00 | 0.00 | 63 | 1017.3 |
| 20260507221949 | 21 | 252 | 4.8 | 14.5 | 0.00 | 0.00 | 0.00 | 66 | 1017.4 |
| 20260507221448 | 20 | 339 | 6.4 | 12.9 | 0.00 | 0.00 | 0.00 | 65 | 1017.4 |
| 20260507221213 | 21 | 168 | 6.4 | 12.9 | 0.00 | 0.00 | 0.00 | 65 | 1017.5 |
| 20260507220452 | 21 | 270 | 4.8 | 11.3 | 0.00 | 0.00 | 0.00 | 62 | 1017.6 |
| 20260507215945 | 20 | 298 | 4.8 | 12.9 | 0.00 | 0.00 | 0.00 | 64 | 1017.7 |
| 20260507215442 | 20 | 323 | 4.8 | 12.9 | 0.00 | 0.00 | 0.00 | 63 | 1017.6 |
| 20260507214942 | 20 | 222 | 4.8 | 14.5 | 0.00 | 0.00 | 0.00 | 68 | 1017.7 |
| 20260507214441 | 21 | 318 | 6.4 | 14.5 | 0.00 | 0.00 | 0.00 | 62 | 1017.7 |
| 20260507213939 | 20 | 245 | 6.4 | 12.9 | 0.00 | 0.00 | 0.00 | 64 | 1017.7 |
| 20260507213437 | 20 | 359 | 6.4 | 14.5 | 0.00 | 0.00 | 0.00 | 67 | 1017.8 |
| 20260507212937 | 20 | 279 | 4.8 | 14.5 | 0.00 | 0.00 | 0.00 | 67 | 1017.8 |
| 20260507212434 | 19 | 19 | 3.2 | 12.9 | 0.00 | 0.00 | 0.00 | 67 | 1017.8 |
| 20260507212151 | 20 | 299 | 3.2 | 9.7 | 0.00 | 0.00 | 0.00 | 68 | 1017.9 |
| 20260507211651 | 20 | 296 | 3.2 | 9.7 | 0.00 | 0.00 | 0.00 | 66 | 1017.9 |
| 20260507211153 | 19 | 218 | 3.2 | 8.0 | 0.00 | 0.00 | 0.00 | 67 | 1018.1 |
| 20260507210426 | 19 | 246 | 3.2 | 11.3 | 0.00 | 0.00 | 0.00 | 68 | 1018.1 |
| 20260507210145 | 19 | 6 | 4.8 | 12.9 | 0.00 | 0.00 | 0.00 | 67 | 1018.1 |
| 20260507205639 | 18 | 287 | 3.2 | 12.9 | 0.00 | 0.00 | 0.00 | 67 | 1018.3 |
| 20260507205138 | 18 | 167 | 4.8 | 12.9 | 0.00 | 0.00 | 0.00 | 67 | 1018.5 |
| 20260507204419 | 19 | 239 | 6.4 | 12.9 | 0.00 | 0.00 | 0.00 | 70 | 1018.4 |
| 20260507204142 | 18 | 265 | 4.8 | 12.9 | 0.00 | 0.00 | 0.00 | 68 | 1018.6 |
| 20260507203417 | 18 | 284 | 3.2 | 8.0 | 0.00 | 0.00 | 0.00 | 69 | 1018.7 |
| 20260507202914 | 18 | 282 | 4.8 | 9.7 | 0.00 | 0.00 | 0.00 | 67 | 1018.6 |
| 20260507202413 | 18 | 283 | 4.8 | 11.3 | 0.00 | 0.00 | 0.00 | 68 | 1018.8 |
| 20260507201907 | 18 | 299 | 6.4 | 12.9 | 0.00 | 0.00 | 0.00 | 69 | 1019.0 |
| 20260507201623 | 18 | 215 | 6.4 | 14.5 | 0.00 | 0.00 | 0.00 | 68 | 1019.0 |
| 20260507200907 | 18 | 93 | 4.8 | 14.5 | 0.00 | 0.00 | 0.00 | 72 | 1019.0 |
| 20260507200404 | 17 | 317 | 4.8 | 14.5 | 0.00 | 0.00 | 0.00 | 72 | 1019.0 |
| 20260507195902 | 17 | 17 | 4.8 | 14.5 | 0.00 | 0.00 | 0.00 | 72 | 1019.1 |
| 20260507195623 | 17 | 294 | 3.2 | 11.3 | 0.00 | 0.00 | 0.00 | 73 | 1019.1 |
| 20260507194901 | 17 | 51 | 3.2 | 11.3 | 0.00 | 0.00 | 0.00 | 74 | 1019.1 |
| 20260507194359 | 16 | 279 | 1.6 | 6.4 | 0.00 | 0.00 | 0.00 | 75 | 1019.3 |
| 20260507193859 | 16 | 16 | 1.6 | 6.4 | 0.00 | 0.00 | 0.00 | 73 | 1019.2 |
| 20260507193351 | 16 | 288 | 4.8 | 11.3 | 0.00 | 0.00 | 0.00 | 73 | 1019.3 |
| 20260507192854 | 16 | 23 | 3.2 | 11.3 | 0.00 | 0.00 | 0.00 | 74 | 1019.3 |
| 20260507192356 | 15 | 77 | 1.6 | 6.4 | 0.00 | 0.00 | 0.00 | 77 | 1019.3 |
| 20260507191843 | 15 | 49 | 3.2 | 8.0 | 0.00 | 0.00 | 0.00 | 77 | 1019.4 |
| 20260507191552 | 15 | 21 | 4.8 | 9.7 | 0.00 | 0.00 | 0.00 | 77 | 1019.4 |
| 20260507191056 | 15 | 22 | 4.8 | 9.7 | 0.00 | 0.00 | 0.00 | 79 | 1019.5 |
| 20260507190333 | 16 | 340 | 3.2 | 9.7 | 0.00 | 0.00 | 0.00 | 76 | 1019.6 |
| 20260507185831 | 15 | 260 | 1.6 | 6.4 | 0.00 | 0.00 | 0.00 | 76 | 1019.6 |
| 20260507185326 | 15 | 105 | 3.2 | 6.4 | 0.00 | 0.00 | 0.00 | 76 | 1019.7 |
| 20260507184823 | 15 | 39 | 3.2 | 6.4 | 0.00 | 0.00 | 0.00 | 75 | 1019.7 |
| 20260507184322 | 15 | 344 | 3.2 | 6.4 | 0.00 | 0.00 | 0.00 | 78 | 1019.7 |
| 20260507183820 | 15 | 292 | 1.6 | 6.4 | 0.00 | 0.00 | 0.00 | 79 | 1019.7 |
| 20260507183318 | 15 | 265 | 1.6 | 4.8 | 0.00 | 0.00 | 0.00 | 81 | 1019.7 |
| 20260507182817 | 15 | 182 | 3.2 | 6.4 | 0.00 | 0.00 | 0.00 | 81 | 1019.7 |
| 20260507182313 | 14 | 337 | 1.6 | 6.4 | 0.00 | 0.00 | 0.00 | 81 | 1019.7 |
| 20260507181812 | 14 | 308 | 1.6 | 6.4 | 0.00 | 0.00 | 0.00 | 79 | 1019.7 |
| 20260507181251 | 15 | 287 | 1.6 | 4.8 | 0.00 | 0.00 | 0.00 | 81 | 1019.8 |
| 20260507181021 | 14 | 203 | 1.6 | 4.8 | 0.00 | 0.00 | 0.00 | 82 | 1019.8 |
| 20260507180236 | 14 | 235 | 3.2 | 6.4 | 0.00 | 0.00 | 0.00 | 82 | 1019.8 |
| 20260507175737 | 14 | 300 | 3.2 | 6.4 | 0.00 | 0.00 | 0.00 | 83 | 1019.8 |
| 20260507175235 | 13 | 239 | 1.6 | 6.4 | 0.00 | 0.00 | 0.00 | 84 | 1019.9 |
| 20260507174733 | 14 | 321 | 1.6 | 6.4 | 0.00 | 0.00 | 0.00 | 82 | 1019.7 |
| 20260507174228 | 13 | 353 | 1.6 | 4.8 | 0.00 | 0.00 | 0.00 | 86 | 1019.8 |
| 20260507173724 | 13 | 345 | 1.6 | 4.8 | 0.00 | 0.00 | 0.00 | 83 | 1019.9 |
| 20260507173222 | 13 | 336 | 0.0 | 3.2 | 0.00 | 0.00 | 0.00 | 85 | 1019.8 |
| 20260507172721 | 13 | 345 | 0.0 | 3.2 | 0.00 | 0.00 | 0.00 | 85 | 1019.9 |
| 20260507172221 | 13 | 345 | 1.6 | 4.8 | 0.00 | 0.00 | 0.00 | 84 | 1020.0 |
| 20260507171712 | 13 | 18 | 1.6 | 4.8 | 0.00 | 0.00 | 0.00 | 84 | 1020.0 |
| 20260507171204 | 13 | 0 | 1.6 | 3.2 | 0.00 | 0.00 | 0.00 | 87 | 1020.0 |
| 20260507170701 | 13 | 335 | 1.6 | 4.8 | 0.00 | 0.00 | 0.00 | 87 | 1020.0 |
| 20260507170200 | 13 | 335 | 3.2 | 6.4 | 0.00 | 0.00 | 0.00 | 86 | 1020.0 |
| 20260507165658 | 13 | 345 | 1.6 | 6.4 | 0.00 | 0.00 | 0.00 | 88 | 1020.0 |
| 20260507165159 | 12 | 37 | 1.6 | 4.8 | 0.00 | 0.00 | 0.00 | 87 | 1019.9 |
| 20260507164658 | 12 | 37 | 1.6 | 6.4 | 0.00 | 0.00 | 0.00 | 88 | 1020.0 |
| 20260507164152 | 12 | 270 | 3.2 | 6.4 | 0.00 | 0.00 | 0.00 | 87 | 1019.9 |
| 20260507163651 | 12 | 27 | 3.2 | 6.4 | 0.00 | 0.00 | 0.00 | 88 | 1019.9 |
| 20260507163148 | 12 | 343 | 3.2 | 4.8 | 0.00 | 0.00 | 0.00 | 89 | 1020.0 |
| 20260507162649 | 12 | 316 | 3.2 | 6.4 | 0.00 | 0.00 | 0.00 | 90 | 1020.1 |
| 20260507162146 | 12 | 4 | 1.6 | 6.4 | 0.00 | 0.00 | 0.00 | 90 | 1020.0 |
| 20260507161641 | 12 | 256 | 1.6 | 4.8 | 0.00 | 0.00 | 0.00 | 90 | 1020.0 |
| 20260507161142 | 12 | 342 | 1.6 | 4.8 | 0.00 | 0.00 | 0.00 | 90 | 1019.9 |
| 20260507160631 | 12 | 343 | 1.6 | 4.8 | 0.00 | 0.00 | 0.00 | 91 | 1020.0 |
| 20260507160113 | 12 | 343 | 3.2 | 4.8 | 0.00 | 0.00 | 0.00 | 91 | 1020.0 |
| 20260507155603 | 11 | 48 | 3.2 | 4.8 | 0.00 | 0.00 | 0.00 | 90 | 1020.1 |
| 20260507155105 | 11 | 332 | 1.6 | 4.8 | 0.00 | 0.00 | 0.00 | 91 | 1020.1 |
| 20260507154604 | 11 | 332 | 1.6 | 4.8 | 0.00 | 0.00 | 0.00 | 91 | 1020.2 |
| 20260507154100 | 11 | 350 | 3.2 | 4.8 | 0.00 | 0.00 | 0.00 | 92 | 1020.2 |
| 20260507153559 | 11 | 333 | 3.2 | 6.4 | 0.00 | 0.00 | 0.00 | 93 | 1020.2 |
| 20260507153057 | 11 | 341 | 4.8 | 6.4 | 0.00 | 0.00 | 0.00 | 92 | 1020.3 |
| 20260507152820 | 11 | 7 | 3.2 | 6.4 | 0.00 | 0.00 | 0.00 | 92 | 1020.3 |
| 20260507152054 | 11 | 304 | 1.6 | 6.4 | 0.00 | 0.00 | 0.00 | 93 | 1020.3 |
| 20260507151542 | 11 | 315 | 1.6 | 4.8 | 0.00 | 0.00 | 0.00 | 93 | 1020.2 |
| 20260507151045 | 11 | 315 | 1.6 | 4.8 | 0.00 | 0.00 | 0.00 | 93 | 1020.1 |
| 20260507150534 | 11 | 293 | 0.0 | 1.6 | 0.00 | 0.00 | 0.00 | 94 | 1020.2 |
| 20260507150025 | 11 | 229 | 0.0 | 0.0 | 0.00 | 0.00 | 0.00 | 94 | 1020.1 |
| 20260507145523 | 11 | 229 | 0.0 | 0.0 | 0.00 | 0.00 | 0.00 | 94 | 1020.1 |
| 20260507145026 | 11 | 229 | 0.0 | 0.0 | 0.00 | 0.00 | 0.00 | 94 | 1020.1 |
| 20260507144518 | 11 | 229 | 0.0 | 0.0 | 0.00 | 0.00 | 0.00 | 94 | 1020.1 |
| 20260507144020 | 11 | 229 | 0.0 | 0.0 | 0.00 | 0.00 | 0.00 | 94 | 1020.1 |
| 20260507143509 | 11 | 229 | 0.0 | 0.0 | 0.00 | 0.00 | 0.00 | 94 | 1020.1 |
| 20260507143008 | 11 | 229 | 0.0 | 0.0 | 0.00 | 0.00 | 0.00 | 95 | 1020.1 |
| 20260507142459 | 11 | 229 | 0.0 | 0.0 | 0.00 | 0.00 | 0.00 | 95 | 1020.0 |
| 20260507141942 | 10 | 229 | 0.0 | 0.0 | 0.00 | 0.00 | 0.00 | 95 | 1019.9 |
| 20260507141422 | 10 | 229 | 0.0 | 0.0 | 0.00 | 0.00 | 0.00 | 95 | 1020.0 |
| 20260507140921 | 10 | 229 | 0.0 | 0.0 | 0.00 | 0.00 | 0.00 | 95 | 1020.0 |
| 20260507140423 | 10 | 229 | 0.0 | 0.0 | 0.00 | 0.00 | 0.00 | 95 | 1019.9 |
| 20260507135921 | 10 | 229 | 0.0 | 0.0 | 0.00 | 0.00 | 0.00 | 95 | 1019.9 |
| 20260507135622 | 10 | 229 | 0.0 | 0.0 | 0.00 | 0.00 | 0.00 | 95 | 1019.9 |
| 20260507134906 | 10 | 229 | 0.0 | 0.0 | 0.00 | 0.00 | 0.00 | 95 | 1019.9 |
| 20260507134351 | 10 | 229 | 0.0 | 0.0 | 0.00 | 0.00 | 0.00 | 95 | 1019.9 |
| 20260507134058 | 10 | 229 | 0.0 | 0.0 | 0.00 | 0.00 | 0.00 | 95 | 1019.8 |
| 20260507133333 | 10 | 227 | 0.0 | 0.0 | 0.00 | 0.00 | 0.00 | 95 | 1019.8 |
| 20260507132823 | 10 | 227 | 0.0 | 0.0 | 0.00 | 0.00 | 0.00 | 95 | 1019.8 |
| 20260507132324 | 10 | 229 | 0.0 | 0.0 | 0.00 | 0.00 | 0.00 | 95 | 1019.9 |
| 20260507132044 | 10 | 229 | 0.0 | 0.0 | 0.00 | 0.00 | 0.00 | 95 | 1019.8 |
| 20260507131314 | 10 | 229 | 0.0 | 0.0 | 0.00 | 0.00 | 0.00 | 95 | 1019.9 |
| 20260507130800 | 10 | 229 | 0.0 | 0.0 | 0.00 | 0.00 | 0.00 | 95 | 1019.9 |
| 20260507130510 | 10 | 229 | 0.0 | 0.0 | 0.00 | 0.00 | 0.00 | 95 | 1019.9 |
| 20260507125730 | 10 | 229 | 0.0 | 0.0 | 0.00 | 0.00 | 0.00 | 95 | 1020.0 |
| 20260507125224 | 10 | 229 | 0.0 | 0.0 | 0.00 | 0.00 | 0.00 | 95 | 1020.0 |
| 20260507124716 | 10 | 229 | 0.0 | 0.0 | 0.00 | 0.00 | 0.00 | 95 | 1020.0 |
| 20260507124202 | 10 | 229 | 0.0 | 0.0 | 0.00 | 0.00 | 0.00 | 95 | 1020.1 |
| 20260507123652 | 10 | 229 | 0.0 | 0.0 | 0.00 | 0.00 | 0.00 | 95 | 1020.0 |
| 20260507123357 | 10 | 229 | 0.0 | 0.0 | 0.00 | 0.00 | 0.00 | 95 | 1020.0 |
| 20260507122628 | 10 | 229 | 0.0 | 0.0 | 0.00 | 0.00 | 0.00 | 95 | 1020.1 |
| 20260507122118 | 10 | 229 | 0.0 | 0.0 | 0.00 | 0.00 | 0.00 | 95 | 1020.1 |
| 20260507121605 | 10 | 229 | 0.0 | 3.2 | 0.00 | 0.00 | 0.00 | 95 | 1020.2 |
| 20260507121051 | 10 | 229 | 1.6 | 3.2 | 0.00 | 0.00 | 0.00 | 95 | 1020.1 |
| 20260507120546 | 10 | 229 | 1.6 | 3.2 | 0.00 | 0.00 | 0.00 | 94 | 1020.1 |
| 20260507120044 | 10 | 229 | 0.0 | 3.2 | 0.00 | 0.00 | 0.00 | 94 | 1020.2 |
| 20260507115543 | 10 | 229 | 0.0 | 0.0 | 0.00 | 0.00 | 0.00 | 94 | 1020.3 |
| 20260507115031 | 10 | 229 | 0.0 | 0.0 | 0.00 | 0.00 | 0.00 | 94 | 1020.3 |
| 20260507114532 | 10 | 229 | 0.0 | 0.0 | 0.00 | 0.00 | 0.00 | 94 | 1020.4 |
| 20260507114019 | 10 | 229 | 0.0 | 0.0 | 0.00 | 0.00 | 0.00 | 94 | 1020.4 |
| 20260507113518 | 10 | 229 | 0.0 | 0.0 | 0.00 | 0.00 | 0.00 | 94 | 1020.4 |
| 20260507113234 | 10 | 229 | 0.0 | 0.0 | 0.00 | 0.00 | 0.00 | 93 | 1020.4 |
| 20260507112509 | 10 | 229 | 0.0 | 1.6 | 0.00 | 0.00 | 0.00 | 93 | 1020.4 |
| 20260507112009 | 10 | 229 | 0.0 | 3.2 | 0.00 | 0.00 | 0.00 | 92 | 1020.4 |
| 20260507111510 | 10 | 229 | 0.0 | 3.2 | 0.00 | 0.00 | 0.00 | 92 | 1020.4 |
| 20260507111220 | 10 | 229 | 0.0 | 3.2 | 0.00 | 0.00 | 0.00 | 91 | 1020.5 |
| 20260507110448 | 10 | 229 | 1.6 | 3.2 | 0.00 | 0.00 | 0.00 | 91 | 1020.4 |
| 20260507105945 | 10 | 229 | 1.6 | 3.2 | 0.00 | 0.00 | 0.00 | 91 | 1020.4 |
| 20260507105446 | 10 | 229 | 1.6 | 3.2 | 0.00 | 0.00 | 0.00 | 90 | 1020.5 |
| 20260507104946 | 10 | 229 | 1.6 | 4.8 | 0.00 | 0.00 | 0.00 | 90 | 1020.5 |
| 20260507104439 | 10 | 229 | 3.2 | 6.4 | 0.00 | 0.00 | 0.00 | 90 | 1020.5 |
| 20260507104159 | 10 | 229 | 3.2 | 6.4 | 0.00 | 0.00 | 0.00 | 90 | 1020.6 |
| 20260507103436 | 11 | 217 | 3.2 | 6.4 | 0.00 | 0.00 | 0.00 | 89 | 1020.6 |
| 20260507102927 | 11 | 227 | 1.6 | 6.4 | 0.00 | 0.00 | 0.00 | 89 | 1020.6 |
| 20260507102423 | 11 | 230 | 0.0 | 4.8 | 0.00 | 0.00 | 0.00 | 88 | 1020.6 |
| 20260507101923 | 11 | 202 | 0.0 | 0.0 | 0.00 | 0.00 | 0.00 | 88 | 1020.7 |
| 20260507101415 | 11 | 202 | 0.0 | 0.0 | 0.00 | 0.00 | 0.00 | 87 | 1020.6 |
| 20260507101131 | 11 | 202 | 0.0 | 0.0 | 0.00 | 0.00 | 0.00 | 87 | 1020.7 |
| 20260507100359 | 11 | 202 | 0.0 | 0.0 | 0.00 | 0.00 | 0.00 | 87 | 1020.7 |
| 20260507095847 | 11 | 202 | 0.0 | 0.0 | 0.00 | 0.00 | 0.00 | 86 | 1020.8 |
| 20260507095333 | 11 | 202 | 0.0 | 0.0 | 0.00 | 0.00 | 0.00 | 86 | 1020.7 |
| 20260507095041 | 11 | 176 | 0.0 | 0.0 | 0.00 | 0.00 | 0.00 | 87 | 1020.7 |
| 20260507094317 | 11 | 175 | 0.0 | 0.0 | 0.00 | 0.00 | 0.00 | 86 | 1020.7 |
| 20260507093817 | 11 | 175 | 0.0 | 0.0 | 0.00 | 0.00 | 0.00 | 87 | 1020.8 |
| 20260507093313 | 11 | 253 | 0.0 | 0.0 | 0.00 | 0.00 | 0.00 | 86 | 1020.8 |
| 20260507093032 | 11 | 253 | 0.0 | 0.0 | 0.00 | 0.00 | 0.00 | 86 | 1020.9 |
| 20260507092307 | 11 | 253 | 0.0 | 0.0 | 0.00 | 0.00 | 0.00 | 85 | 1021.0 |
| 20260507092026 | 11 | 253 | 0.0 | 0.0 | 0.00 | 0.00 | 0.00 | 85 | 1020.9 |
| 20260507091256 | 11 | 253 | 0.0 | 0.0 | 0.00 | 0.00 | 0.00 | 86 | 1021.1 |
| 20260507090750 | 11 | 253 | 0.0 | 0.0 | 0.00 | 0.00 | 0.00 | 86 | 1021.1 |
| 20260507090243 | 11 | 253 | 0.0 | 0.0 | 0.00 | 0.00 | 0.00 | 85 | 1021.1 |
| 20260507085743 | 11 | 253 | 0.0 | 1.6 | 0.00 | 0.00 | 0.00 | 86 | 1021.2 |
| 20260507085238 | 11 | 253 | 0.0 | 3.2 | 0.00 | 0.00 | 0.00 | 86 | 1021.2 |
| 20260507084726 | 11 | 253 | 1.6 | 3.2 | 0.00 | 0.00 | 0.00 | 86 | 1021.1 |
| 20260507084223 | 11 | 253 | 1.6 | 4.8 | 0.00 | 0.00 | 0.00 | 86 | 1021.2 |
| 20260507083720 | 11 | 253 | 3.2 | 4.8 | 0.00 | 0.00 | 0.00 | 86 | 1021.3 |
| 20260507083220 | 11 | 253 | 3.2 | 4.8 | 0.00 | 0.00 | 0.00 | 86 | 1021.3 |
| 20260507082717 | 11 | 222 | 3.2 | 6.4 | 0.00 | 0.00 | 0.00 | 86 | 1021.2 |
| 20260507082158 | 11 | 258 | 3.2 | 8.0 | 0.00 | 0.00 | 0.00 | 87 | 1021.3 |
| 20260507081920 | 11 | 270 | 3.2 | 8.0 | 0.00 | 0.00 | 0.00 | 86 | 1021.4 |
| 20260507081157 | 11 | 265 | 3.2 | 8.0 | 0.00 | 0.00 | 0.00 | 86 | 1021.3 |
| 20260507080656 | 11 | 242 | 4.8 | 8.0 | 0.00 | 0.00 | 0.00 | 86 | 1021.3 |
| 20260507080159 | 11 | 236 | 4.8 | 8.0 | 0.00 | 0.00 | 0.00 | 86 | 1021.3 |
| 20260507075651 | 11 | 265 | 3.2 | 8.0 | 0.00 | 0.00 | 0.00 | 86 | 1021.3 |
| 20260507075148 | 11 | 242 | 3.2 | 8.0 | 0.00 | 0.00 | 0.00 | 87 | 1021.3 |
| 20260507074643 | 11 | 227 | 3.2 | 6.4 | 0.00 | 0.00 | 0.00 | 87 | 1021.3 |
| 20260507074133 | 11 | 228 | 1.6 | 4.8 | 0.00 | 0.00 | 0.00 | 87 | 1021.4 |
| 20260507073624 | 11 | 228 | 1.6 | 4.8 | 0.00 | 0.00 | 0.00 | 87 | 1021.3 |
| 20260507073109 | 11 | 228 | 1.6 | 6.4 | 0.00 | 0.00 | 0.00 | 88 | 1021.3 |
| 20260507072822 | 11 | 228 | 3.2 | 6.4 | 0.00 | 0.00 | 0.00 | 88 | 1021.3 |
| 20260507072101 | 11 | 225 | 3.2 | 6.4 | 0.00 | 0.00 | 0.00 | 87 | 1021.3 |
| 20260507071559 | 11 | 222 | 4.8 | 8.0 | 0.00 | 0.00 | 0.00 | 87 | 1021.3 |
| 20260507071316 | 11 | 237 | 4.8 | 8.0 | 0.00 | 0.00 | 0.00 | 88 | 1021.3 |
| 20260507070549 | 11 | 233 | 4.8 | 8.0 | 0.00 | 0.00 | 0.00 | 87 | 1021.3 |
| 20260507070044 | 11 | 223 | 4.8 | 8.0 | 0.00 | 0.00 | 0.00 | 88 | 1021.3 |
| 20260507065543 | 11 | 241 | 4.8 | 8.0 | 0.00 | 0.00 | 0.00 | 88 | 1021.2 |
| 20260507065042 | 11 | 225 | 4.8 | 8.0 | 0.00 | 0.00 | 0.00 | 88 | 1021.2 |
| 20260507064539 | 11 | 235 | 3.2 | 6.4 | 0.00 | 0.00 | 0.00 | 89 | 1021.4 |
| 20260507064039 | 10 | 223 | 3.2 | 4.8 | 0.00 | 0.00 | 0.00 | 89 | 1021.3 |
| 20260507063544 | 10 | 230 | 3.2 | 6.4 | 0.00 | 0.00 | 0.00 | 89 | 1021.3 |
| 20260507063040 | 10 | 204 | 3.2 | 6.4 | 0.00 | 0.00 | 0.00 | 89 | 1021.3 |
| 20260507062538 | 10 | 226 | 3.2 | 6.4 | 0.00 | 0.00 | 0.00 | 89 | 1021.3 |
| 20260507062036 | 10 | 211 | 3.2 | 8.0 | 0.00 | 0.00 | 0.00 | 89 | 1021.3 |
| 20260507061535 | 10 | 206 | 4.8 | 8.0 | 0.00 | 0.00 | 0.00 | 88 | 1021.3 |
| 20260507061041 | 10 | 209 | 4.8 | 9.7 | 0.00 | 0.00 | 0.00 | 88 | 1021.2 |
| 20260507060537 | 10 | 227 | 4.8 | 9.7 | 0.00 | 0.00 | 0.00 | 88 | 1021.3 |
| 20260507060033 | 10 | 235 | 4.8 | 9.7 | 0.00 | 0.00 | 0.00 | 87 | 1021.3 |
| 20260507055534 | 10 | 245 | 6.4 | 12.9 | 0.00 | 0.00 | 0.00 | 88 | 1021.2 |
| 20260507055034 | 10 | 233 | 8.0 | 12.9 | 0.00 | 0.00 | 0.00 | 87 | 1021.1 |
| 20260507054532 | 11 | 232 | 6.4 | 12.9 | 0.00 | 0.00 | 0.00 | 87 | 1021.1 |
| 20260507054032 | 11 | 231 | 6.4 | 12.9 | 0.00 | 0.00 | 0.00 | 87 | 1021.1 |
| 20260507053533 | 11 | 225 | 6.4 | 12.9 | 0.00 | 0.00 | 0.00 | 87 | 1021.0 |
| 20260507053031 | 11 | 218 | 6.4 | 12.9 | 0.00 | 0.00 | 0.00 | 87 | 1021.0 |
| 20260507052531 | 11 | 234 | 6.4 | 14.5 | 0.00 | 0.00 | 0.00 | 87 | 1020.9 |
| 20260507052255 | 11 | 226 | 8.0 | 14.5 | 0.00 | 0.00 | 0.00 | 86 | 1020.9 |
| 20260507051528 | 11 | 222 | 8.0 | 14.5 | 0.00 | 0.00 | 0.00 | 86 | 1021.0 |
| 20260507051246 | 11 | 233 | 8.0 | 14.5 | 0.00 | 0.00 | 0.00 | 86 | 1020.9 |
| 20260507050527 | 11 | 213 | 8.0 | 14.5 | 0.00 | 0.00 | 0.00 | 86 | 1021.0 |